Location: Northam
(31.6525°S, 116.6655°E)
Time: 08:59:59
(UTC+08:00)

N. Korean satellite - Pass Details

Date: 21 May 2021
Orbit: 450 x 500 km, 97.2° (Epoch: 13 June)

Event Time Altitude Azimuth Distance (km) Brightness Sun altitude
Rises 04:34:43 0° 24° (NNE) 2,490 10.6 -30.2°
Reaches altitude 10° 04:36:46 10° 30° (NNE) 1,631 9.6 -29.8°
Enters shadow 04:37:00 12° 31° (NNE) 1,541 9.5 -29.7°
